Regional Weather Roundup
Issued by NWS Mobile, AL

Home | Current Version | Previous Version | Text Only | Print | Product List | Glossary On
Versions: 1 2 3 4 5 6 7 8 9 10 11 12 13 14 15 16 17 18 19 20 21 22 23 24 25 26 27 28 29 30 31 32 33 34 35 36 37 38 39 40 41 42 43 44 45 46 47 48 49 50
000
ASUS44 KMOB 181710
RWRMOB
REGIONAL WEATHER ROUNDUP
NATIONAL WEATHER SERVICE MOBILE AL
1200 PM CDT THU SEP 18 2014

NOTE: "FAIR" INDICATES FEW OR NO CLOUDS BELOW 12,000 FEET WITH NO
      SIGNIFICANT WEATHER AND/OR OBSTRUCTIONS TO VISIBILITY.

  * THESE STATIONS ARE PART OF THE UNIVERSITY OF SOUTH ALABAMA
    MESONET AND ARE NOT UNDER NWS OR FAA QUALITY CONTROL.

ALZ061>064-181800-
COASTAL ALABAMA

CITY           SKY/WX    TMP DP  RH WIND       PRES   REMARKS
MOBILE REG APT PTSUNNY   86  72  62 VRB3      29.95F
BROOKLEY FIELD PTSUNNY   86  72  62 NE5       29.96F
USA CAMPUS*      N/A     86  72  62 CALM      29.93F
DOG RIVER*     NOT AVBL


CITY           SKY/WX    TMP DP  RH WIND       PRES   REMARKS
MOUNT VERNON*    N/A     86  70  58 CALM      29.94F
SARALAND*      NOT AVBL
BAY MINETTE*   NOT AVBL
LOXLEY*          N/A    N/A N/A N/A E6        29.94F
ROBERTSDALE*     N/A     82  68  61 E2        29.94F
FAIRHOPE*        N/A     86  75  70 CALM      29.93F HX  95
ELBERTA*         N/A     86  75  70 CALM      29.93F HX  95
FOLEY*         NOT AVBL
GRAND BAY*       N/A     88  73  62 SE5       29.92F HX  96
DAUPHIN ISLND* NOT AVBL
BON SCOUR NWR* NOT AVBL
GULF SHORES    PTSUNNY   87  74  65 SE8       29.94S

$$

ALZ051>060-181800-
INTERIOR SOUTHWEST AND SOUTH CENTRAL ALABAMA

CITY           SKY/WX    TMP DP  RH WIND       PRES   REMARKS
GREENVILLE     MOSUNNY   86  60  41 E3        29.96F
EVERGREEN      MOSUNNY   86  67  52 NE3       29.97F
CASTLEBERRY*   NOT AVBL
ATMORE*          N/A     86  68  54 CALM      29.96F
DIXIE*         NOT AVBL
ANDALUSIA/OPP  PTSUNNY   89  64  43 CALM      29.96F
ANDALUSIA*     NOT AVBL
FLORALA APT    MOSUNNY   87  67  51 NE7       29.97F
FLORALA*         N/A     84  66  54 N3        29.92F

$$

FLZ001>006-181800-
WESTERN FLORIDA PANHANDLE

CITY           SKY/WX    TMP DP  RH WIND       PRES   REMARKS
PENSACOLA      PTSUNNY   84  70  62 E7        29.94F
NAS PENSACOLA  PTSUNNY   86  72  62 E8        29.94S
MILTON         PTSUNNY   87  70  56 N5        29.95F
WHTNG S FIELD  MOSUNNY   88  71  57 NE6       29.95F


CITY           SKY/WX    TMP DP  RH WIND       PRES   REMARKS
WALNUT HILL*   NOT AVBL
JAY*           NOT AVBL
CRESTVIEW      SUNNY     89  69  51 CALM      29.96F
VALPARAISO     NOT AVBL
DESTIN         MOSUNNY   87  73  62 SE6       29.94F

$$

MSZ076-079-181800-
INTERIOR SOUTHEAST MISSISSIPPI

CITY           SKY/WX    TMP DP  RH WIND       PRES   REMARKS
LEAKESVILLE*   NOT AVBL
AGRICOLA*      NOT AVBL

$$

MARINE OBSERVATIONS

STATION/POSITION TIME  TEMP    WIND        PRES    WAVE
                       AIR SEA DIR/SP/G            HT/PER
                 (UTC) (F)     (DEG/KT/KT) (MB)    (FT/S)
PASCAGOULA       1700   84     160/  7/  8 1013.6F
PETIT BOIS ISLND 1700   87      70/  2/  4 1014.1F
GRAND BAY        1600   82     150/  5     1015.0S
KATRINA CUT      1600   85      80/  3     1014.9S
CEDAR POINT      1600   82     100/  3     1014.2F
E DAUPHIN ISLAND 1700   83     140/  3/  3 1013.6F
MIDDLE BAY LIGHT 1600   83     170/  5     1013.2F
STATE DOCKS      1700   87 87              1013.8S
MEAHER PARK      1600   82     230/  3     1013.2F
WEEKS BAY        1600   86                   N/A
12 S ORANGE BCH  1700   83 86  110/  8/ 10 1013.9F   1/ 6
PENSACOLA BAY    1700   87 87  110/  2/  5 1014.3R
64 S DAUPHIN ISL 1644   83 86  100/  6/  6 1014.2F   1/ 4
67 S FORT MORGAN 1600   87        CALM     1013.9F

$$

SELECTED LOCATIONS ACROSS THE REGION

CITY           SKY/WX    TMP DP  RH WIND       PRES   REMARKS
NEW ORLEANS    CLOUDY    88  71  57 CALM      29.92F
GULFPORT       MOSUNNY   87  72  60 SE9       29.92F
PASCAGOULA AP  PTSUNNY   87  73  62 VRB5      29.93F
PASCAGOULA*      N/A     86  73  66 SW5       29.92F
HATTIESBURG    CLOUDY    85  72  65 MISG      29.95F
LAUREL         CLOUDY   N/A N/A N/A CALM      29.96F
MERIDIAN       PTSUNNY   85  66  53 E5        29.96F
JACKSON        CLOUDY    86  71  60 VRB3      29.95F
MONTGOMERY     SUNNY     87  56  34 VRB3      29.97F
TROY           MOSUNNY   85  56  37 VRB5      29.97F
KINSTON*       NOT AVBL
GENEVA*          N/A     84  64  51 E2        29.97F
ASHFORD*       NOT AVBL
DOTHAN         MOSUNNY   86  62  44 CALM      30.00F
PANAMA CITY    MOSUNNY   90  70  51 N8        29.94F HX  95

$$



USA.gov is the U.S. government's official web portal to all federal, state and local government web resources and services.